Date,TemperatureHighF,TemperatureAvgF,TemperatureLowF,DewpointHighF,DewpointAvgF,DewpointLowF,HumidityHigh,HumidityAvg,HumidityLow,PressureMaxIn,PressureMinIn,WindSpeedMaxMPH,WindSpeedAvgMPH,GustSpeedMaxMPH,PrecipitationSumIn
2013-2-1,54.3,41.2,29.5,22.3,19.3,12.7,65,43,21,30.13,29.99,15,3,19,0.00
2013-2-2,54.3,42.5,31.6,21.9,19.0,14.4,62,41,22,30.21,30.09,8,2,11,0.00
2013-2-3,51.6,42.0,30.4,29.1,19.7,11.7,54,42,23,30.12,29.81,9,2,10,0.00
2013-2-4,55.9,43.7,35.1,28.9,24.7,19.6,72,49,24,29.92,29.78,13,4,15,0.00
2013-2-5,57.9,44.4,34.9,23.0,18.8,13.5,58,38,18,29.91,29.76,9,2,10,0.00
2013-2-6,59.4,45.7,31.6,27.3,20.7,15.8,56,38,27,29.80,29.63,13,3,17,0.00
2013-2-7,54.3,44.3,32.2,25.9,21.4,12.0,70,42,19,29.93,29.77,8,2,15,0.00
2013-2-8,56.5,45.5,33.1,23.4,20.1,15.1,61,38,23,29.90,29.52,18,5,26,0.00
2013-2-9,47.8,38.9,29.8,23.5,13.2,3.2,60,36,20,29.66,29.36,29,8,39,0.00
2013-2-10,41.9,33.6,26.8,21.0,14.0,8.6,68,46,26,29.84,29.66,15,4,18,0.00
2013-2-11,45.5,33.4,23.2,22.6,15.7,-0.4,76,52,15,29.91,29.77,16,4,22,0.00
2013-2-12,40.6,31.2,22.6,22.6,12.8,3.7,78,50,22,30.10,29.82,16,5,22,0.00
2013-2-13,46.8,34.6,24.4,17.6,13.4,10.4,58,43,26,30.10,29.95,13,4,18,0.00
2013-2-14,50.5,38.7,28.0,21.7,17.8,14.5,62,44,24,30.05,29.90,23,5,26,0.00
2013-2-15,50.5,39.0,26.2,21.7,12.5,-0.6,72,39,12,30.22,30.05,22,5,34,0.00
2013-2-16,56.7,43.0,30.6,12.2,7.2,-7.2,44,25,7,30.28,29.94,13,4,18,0.00
2013-2-17,59.2,43.8,26.6,7.7,2.0,-5.4,39,19,7,29.95,29.50,18,4,18,0.00
2013-2-18,50.5,41.9,34.5,16.5,-6.4,-36.0,45,18,2,29.88,29.60,18,6,23,0.00
2013-2-19,58.6,41.9,25.0,34.2,6.2,-12.3,65,27,9,29.90,29.54,22,5,31,0.00
2013-2-20,49.8,42.4,34.2,34.2,27.4,14.4,77,58,24,29.55,29.23,26,6,29,0.00
2013-2-21,45.3,35.0,27.1,27.1,23.4,17.6,90,65,33,29.75,29.33,14,4,19,0.12
2013-2-22,41.4,34.6,28.9,23.7,20.7,11.8,71,57,31,29.92,29.73,17,4,25,0.00
2013-2-23,47.5,36.5,23.7,18.5,12.1,7.2,59,38,22,29.97,29.57,15,4,18,0.00
2013-2-24,41.2,33.6,27.0,24.6,16.1,3.7,90,52,24,29.75,29.46,22,7,28,0.00
2013-2-25,47.5,34.9,23.4,24.6,12.5,1.8,89,45,15,30.00,29.75,15,4,19,0.02
2013-2-26,46.2,35.6,28.9,17.1,6.8,-11.0,57,33,11,29.96,29.67,27,6,32,0.00
2013-2-27,43.5,33.1,21.9,10.8,6.0,-1.5,59,34,15,30.18,29.96,9,2,12,0.00
2013-2-28,51.4,37.8,25.9,8.1,3.8,-8.3,41,26,8,30.23,30.09,16,5,22,0.00